Wind_Speed
7 8 7 6 6 6 6 6 6 6 7 8 8 8 8 7 7 6 7 6 5 5 4 4 3 2 2 1 2 3 3 2 3 4 4 5 6 6 6 5 4 3 4
8 8 7 7 7 7 7 7 6 7 7 8 8 8 9 8 8 7 7 6 6 5 4 4 4 3 2 1 1 2 2 2 3 3 4 5 5 6 5 4 4 3 4
8 7 7 7 8 8 8 8 8 8 8 8 9 9 9 9 8 8 8 7 6 5 4 4 4 3 3 2 1 0 1 2 2 3 2 3 4 4 5 4 4 4 4
8 8 7 7 8 8 9 9 9 8 8 9 9 9 9 9 9 9 9 8 7 6 5 5 4 3 3 3 2 1 0 1 2 1 1 1 2 3 4 4 3 5 5
9 8 8 8 8 8 9 9 9 9 9 9 10 10 9 9 9 9 9 8 8 7 6 6 5 5 4 3 2 2 1 1 1 1 1 1 2 3 4 4 4 4 5
9 9 9 9 9 9 10 10 10 10 10 10 10 9 9 9 9 9 9 8 8 8 7 7 6 6 5 4 3 3 2 2 2 3 2 2 3 3 3 3 3 4 5
10 10 9 9 9 10 10 10 11 10 10 10 10 10 10 10 10 9 9 9 8 8 8 7 7 6 5 5 4 4 3 2 2 3 3 3 3 3 3 3 3 3 4
10 10 10 9 9 10 10 10 11 11 11 10 10 10 10 10 11 10 9 9 8 7 7 7 6 6 7 6 5 5 4 4 4 3 4 4 3 3 3 3 3 3 3
11 10 10 10 11 10 10 11 10 11 11 11 11 11 11 11 11 11 10 9 8 7 7 7 7 6 6 6 5 5 5 5 5 5 5 5 4 3 4 4 3 3 4
12 11 11 11 11 11 11 11 11 11 12 11 11 11 11 11 11 11 10 9 8 8 8 7 7 7 6 6 6 6 5 5 6 6 6 5 5 4 4 5 4 4 4
12 12 12 12 12 12 12 12 11 11 12 11 10 10 11 11 11 11 10 10 9 8 8 7 7 7 7 7 7 7 6 6 6 7 7 6 6 6 6 6 6 6 6
13 12 12 13 13 13 13 13 12 12 12 11 11 11 11 11 11 11 11 10 10 9 9 8 7 7 8 8 8 7 7 7 7 7 7 7 7 7 7 7 7 7 7
15 14 13 13 13 14 14 13 13 12 11 11 11 11 11 10 10 10 10 11 11 10 10 9 9 8 8 8 8 8 7 6 7 7 8 8 8 8 8 8 8 8 8
16 16 14 14 13 13 13 14 13 12 12 12 11 11 10 10 10 10 11 10 11 11 11 10 10 9 9 9 8 7 7 7 6 7 8 8 8 8 8 9 9 9 9
16 16 16 15 15 14 14 14 13 13 13 13 12 11 11 11 10 11 11 10 11 11 12 11 12 11 10 9 8 7 7 7 7 8 8 9 9 9 9 9 9 10 10
17 17 17 17 16 16 15 16 15 14 14 14 12 12 11 11 11 11 12 11 11 11 12 12 12 12 11 10 9 8 8 9 8 8 8 8 8 9 10 9 10 11 11
17 18 18 18 17 17 17 17 17 16 15 14 13 12 12 12 12 11 12 12 11 11 12 12 12 12 12 11 9 8 9 9 9 9 9 9 9 9 10 11 11 11 11
18 19 19 19 19 18 18 18 17 17 16 15 14 13 12 12 12 12 12 12 12 12 11 12 12 11 11 11 10 10 10 11 10 10 10 10 9 10 10 11 11 12 12
19 19 19 19 19 19 19 18 16 17 16 15 14 13 13 13 13 12 12 12 12 12 12 11 11 11 11 11 11 11 11 11 11 11 11 10 11 11 11 12 12 12 12
20 20 20 20 20 20 19 18 17 16 16 15 14 14 14 14 13 12 12 12 12 12 12 12 11 11 11 12 12 12 12 12 12 11 11 11 11 12 12 13 13 13 13
20 20 20 20 20 20 20 17 16 17 16 15 15 14 14 14 14 13 12 12 13 13 12 12 12 12 12 12 12 12 13 13 12 12 11 12 12 13 13 13 14 14 15
18 19 20 20 19 19 18 18 17 17 16 16 16 15 14 13 13 13 13 13 13 13 12 12 13 13 13 13 13 13 13 13 13 13 13 13 13 13 14 15 16 16 16
19 19 19 19 19 19 18 18 17 17 17 17 16 14 14 14 14 13 13 13 13 13 13 12 12 13 13 13 14 14 13 14 14 14 14 14 14 14 15 15 16 16 16
19 19 19 19 19 19 19 18 17 17 17 17 16 15 15 15 15 14 13 13 13 13 13 13 13 13 13 14 14 14 14 14 14 15 15 15 15 15 16 16 16 16 16
20 20 19 19 18 18 19 18 17 17 17 16 16 15 14 15 15 15 14 13 13 13 13 14 14 14 14 14 14 15 15 15 15 16 15 16 16 16 16 16 16 16 17
20 20 20 19 18 18 18 17 16 17 17 17 16 15 15 14 15 15 15 14 14 14 14 15 16 16 16 16 15 15 15 15 16 16 16 16 17 17 17 17 17 17 17
Wind_Direction
347 344 339 332 327 322 315 310 307 305 304 303 302 301 299 300 300 299 304 310 314 317 325 320 308 287 253 176 121 141 157 152 163 159 157 165 169 168 173 170 178 179 173
346 343 337 329 323 320 317 312 308 302 299 298 297 297 295 294 295 294 296 303 303 302 308 313 311 288 264 237 180 167 168 168 167 174 176 172 174 177 173 175 188 189 181
345 344 336 330 322 316 314 311 306 302 300 298 295 294 293 292 291 291 292 295 295 294 296 294 298 287 283 282 284 184 128 131 147 168 186 191 186 194 196 183 189 195 191
347 345 338 332 323 314 309 307 303 300 297 297 296 294 291 290 289 290 290 290 288 287 290 285 283 276 275 278 284 280 191 133 134 146 165 195 205 203 199 192 192 194 197
341 340 338 331 323 314 307 301 299 299 296 294 294 294 289 287 287 289 287 286 284 280 279 277 276 274 275 271 266 260 248 215 200 217 216 213 208 204 200 198 202 203 206
334 333 330 326 322 316 308 301 294 294 294 293 291 290 288 288 288 284 282 279 278 278 277 275 275 277 273 269 258 259 257 250 247 246 242 220 202 198 200 203 215 221 216
326 326 322 322 321 316 310 303 295 292 292 292 291 288 287 287 286 283 275 274 274 274 273 271 272 277 275 269 256 259 265 256 251 255 258 237 219 219 225 223 221 226 221
318 314 312 313 315 314 312 309 302 296 293 291 290 288 285 285 281 281 273 274 275 277 275 269 268 268 270 266 253 254 264 262 254 254 256 242 246 247 240 236 241 235 224
313 310 309 308 310 313 312 309 304 298 294 291 288 285 283 282 279 277 271 269 272 277 274 274 268 264 266 260 262 264 272 272 256 256 256 250 250 254 252 246 241 236 237
314 308 306 304 304 305 308 305 301 298 294 291 287 284 283 283 280 276 272 267 266 268 267 268 266 262 261 260 263 267 271 270 262 263 263 256 253 251 252 251 246 243 243
311 308 304 302 301 302 303 302 301 296 293 292 289 288 285 280 279 278 273 268 265 264 263 259 259 257 257 257 260 261 267 272 268 268 267 262 257 252 253 257 251 251 254
306 304 301 299 299 299 299 297 298 295 292 289 287 287 286 281 277 274 270 268 267 262 259 254 252 254 255 256 257 263 266 266 268 267 265 263 261 256 257 261 255 255 261
306 304 300 297 297 296 296 295 293 291 289 287 286 286 286 282 278 275 270 265 263 259 253 250 250 253 255 257 261 262 263 266 267 261 259 263 265 261 259 261 258 257 260
304 304 299 297 297 297 296 293 288 284 282 283 284 282 284 281 278 274 271 264 259 256 254 251 248 250 253 252 254 262 267 267 267 266 260 261 264 263 263 263 263 262 261
300 299 298 298 297 295 292 289 287 285 282 281 278 280 278 279 276 269 266 260 257 256 255 253 251 251 251 252 256 261 264 272 272 268 272 268 268 266 263 264 266 263 260
296 294 294 294 292 289 287 283 283 282 283 283 279 278 275 274 274 266 259 256 256 256 255 256 257 254 252 252 257 261 265 272 274 274 277 277 272 267 264 267 268 265 261
294 291 290 290 287 285 285 282 280 280 282 281 278 275 274 274 270 269 257 253 256 255 255 256 258 254 255 256 261 262 266 267 265 268 272 278 278 268 265 266 267 269 269
292 289 288 288 286 283 282 280 277 278 277 276 274 274 274 274 271 269 262 256 257 255 255 258 255 254 252 255 261 264 265 264 265 267 270 274 275 275 272 270 269 271 273
291 287 285 284 283 280 279 278 278 275 273 272 270 269 271 270 271 272 263 253 253 255 255 255 255 254 253 256 260 262 263 263 267 270 270 271 273 276 276 275 274 274 275
292 287 285 285 282 279 277 276 276 277 273 272 272 269 268 265 266 270 264 261 255 253 252 254 254 251 253 257 259 260 260 263 267 269 272 275 276 277 277 275 276 275 278
293 290 286 285 281 280 275 275 277 277 275 274 272 270 267 263 263 265 263 262 256 251 251 252 254 252 256 259 260 260 260 262 264 265 270 275 274 274 274 275 278 279 277
292 289 287 284 279 278 276 275 274 270 269 271 270 267 262 259 261 263 265 261 256 251 251 253 254 254 258 258 258 259 262 262 262 263 269 272 271 272 275 278 280 281 280
291 290 286 283 277 275 274 273 272 268 267 268 265 259 259 259 260 260 263 261 253 250 250 250 254 257 258 259 259 261 262 262 263 266 270 270 272 274 276 279 280 279 278
292 290 286 284 277 273 273 271 268 265 265 264 260 258 259 260 262 258 261 257 249 246 247 249 253 256 260 261 263 263 263 260 262 265 266 269 272 276 278 279 279 278 277
292 289 287 285 278 273 273 270 266 262 259 258 258 258 258 259 258 257 256 252 249 247 249 251 253 256 260 263 265 266 263 263 266 267 266 268 271 274 276 279 281 279 279
293 291 287 285 283 278 272 270 262 259 256 257 255 252 254 255 256 256 254 250 249 250 252 254 255 257 258 262 265 266 263 265 266 266 267 268 271 274 275 276 279 280 281
Height
5899 5898 5897 5897 5896 5896 5896 5895 5895 5894 5894 5893 5893 5892 5892 5891 5891 5890 5889 5888 5888 5887 5886 5885 5884 5884 5883 5883 5883 5882 5882 5882 5882 5882 5882 5882 5882 5882 5883 5883 5884 5884 5884
5899 5897 5897 5896 5896 5895 5895 5894 5894 5894 5893 5893 5892 5891 5891 5891 5890 5889 5889 5888 5887 5887 5886 5885 5884 5883 5883 5883 5883 5882 5882 5883 5882 5882 5882 5882 5882 5882 5882 5883 5883 5883 5884
5898 5897 5896 5895 5895 5894 5894 5893 5893 5893 5892 5892 5891 5891 5890 5890 5889 5889 5888 5888 5887 5886 5886 5885 5884 5884 5883 5883 5883 5882 5882 5882 5882 5882 5881 5881 5881 5882 5882 5882 5882 5882 5883
5897 5896 5895 5895 5894 5894 5893 5892 5892 5891 5891 5890 5890 5889 5889 5889 5888 5888 5887 5887 5886 5886 5885 5884 5884 5884 5883 5883 5882 5882 5882 5882 5882 5882 5881 5881 5881 5881 5881 5882 5882 5882 5882
5896 5896 5895 5894 5893 5893 5892 5891 5891 5890 5890 5889 5889 5888 5888 5887 5887 5887 5886 5886 5886 5885 5885 5884 5884 5883 5883 5883 5882 5882 5882 5882 5882 5882 5881 5881 5881 5881 5881 5881 5881 5881 5882
5896 5895 5894 5893 5892 5891 5891 5890 5889 5889 5889 5888 5887 5887 5887 5886 5886 5885 5885 5885 5884 5884 5884 5883 5883 5883 5883 5882 5882 5882 5882 5881 5881 5881 5881 5881 5881 5881 5881 5881 5881 5881 5881
5895 5894 5893 5892 5891 5890 5889 5889 5888 5887 5887 5887 5886 5886 5885 5885 5885 5884 5884 5883 5883 5883 5883 5882 5882 5882 5882 5881 5881 5881 5881 5881 5881 5881 5881 5881 5881 5881 5880 5880 5880 5880 5881
5893 5892 5891 5891 5890 5889 5888 5887 5886 5886 5885 5885 5884 5884 5883 5883 5883 5883 5882 5882 5882 5882 5882 5881 5881 5881 5881 5881 5880 5880 5880 5880 5880 5880 5880 5880 5880 5880 5880 5880 5880 5879 5880
5891 5891 5890 5889 5888 5887 5887 5886 5885 5884 5883 5883 5882 5882 5881 5881 5881 5881 5881 5881 5881 5881 5880 5880 5880 5880 5880 5879 5879 5879 5879 5879 5879 5879 5879 5879 5879 5879 5879 5879 5878 5878 5879
5890 5889 5888 5887 5886 5885 5885 5883 5883 5882 5881 5880 5880 5879 5879 5879 5879 5879 5879 5879 5879 5879 5878 5879 5879 5878 5878 5878 5878 5878 5878 5878 5878 5878 5878 5878 5878 5877 5877 5877 5877 5877 5878
5888 5887 5886 5884 5884 5883 5882 5881 5881 5880 5879 5878 5877 5877 5877 5877 5877 5876 5877 5877 5877 5877 5877 5877 5877 5877 5877 5877 5877 5876 5877 5877 5877 5877 5876 5877 5876 5876 5876 5876 5876 5876 5876
5885 5884 5883 5882 5881 5880 5879 5879 5878 5877 5876 5875 5875 5874 5874 5874 5874 5874 5874 5875 5875 5875 5875 5875 5875 5875 5875 5875 5875 5875 5875 5876 5875 5875 5875 5875 5875 5874 5874 5874 5874 5875 5874
5881 5881 5880 5879 5878 5877 5876 5875 5875 5874 5873 5872 5872 5872 5872 5871 5871 5871 5871 5872 5872 5873 5873 5874 5874 5873 5873 5874 5874 5873 5874 5874 5874 5873 5873 5873 5873 5873 5873 5873 5873 5873 5873
5878 5877 5877 5876 5875 5874 5873 5872 5871 5871 5870 5870 5869 5869 5869 5869 5869 5869 5869 5869 5870 5871 5871 5871 5871 5871 5871 5872 5872 5872 5872 5872 5872 5872 5871 5871 5871 5871 5871 5871 5871 5870 5871
5875 5874 5873 5872 5872 5871 5870 5869 5868 5868 5867 5866 5867 5866 5866 5866 5866 5866 5866 5866 5867 5868 5868 5868 5869 5869 5869 5869 5870 5870 5870 5870 5869 5869 5869 5869 5869 5868 5868 5868 5868 5868 5868
5872 5870 5869 5869 5868 5868 5867 5866 5865 5865 5864 5864 5863 5863 5863 5863 5863 5863 5863 5863 5864 5864 5865 5865 5866 5867 5867 5867 5867 5868 5868 5868 5867 5867 5867 5867 5866 5866 5866 5866 5866 5865 5865
5868 5866 5865 5865 5864 5864 5863 5862 5862 5861 5860 5860 5860 5860 5860 5860 5859 5859 5859 5859 5860 5861 5861 5862 5863 5864 5864 5865 5865 5865 5865 5865 5865 5865 5864 5864 5864 5863 5863 5863 5863 5863 5862
5864 5862 5861 5860 5859 5859 5858 5858 5857 5857 5856 5856 5856 5857 5857 5857 5856 5856 5857 5857 5857 5858 5858 5859 5860 5860 5861 5862 5862 5862 5862 5862 5862 5862 5862 5861 5861 5860 5860 5860 5859 5859 5859
5859 5858 5856 5855 5855 5854 5854 5853 5853 5853 5853 5853 5853 5853 5854 5853 5853 5853 5853 5853 5854 5855 5855 5856 5857 5858 5859 5859 5859 5859 5859 5859 5859 5859 5859 5858 5858 5857 5857 5856 5856 5855 5855
5855 5853 5852 5851 5850 5849 5849 5848 5848 5848 5849 5848 5848 5849 5849 5849 5850 5850 5850 5850 5851 5852 5852 5853 5854 5855 5855 5856 5856 5856 5856 5856 5856 5856 5856 5855 5855 5854 5853 5853 5853 5852 5852
5850 5848 5847 5846 5845 5844 5844 5844 5844 5844 5844 5844 5844 5843 5844 5845 5846 5846 5846 5847 5847 5848 5849 5850 5851 5851 5852 5852 5853 5853 5853 5853 5853 5853 5853 5852 5852 5851 5850 5850 5849 5849 5848
5845 5844 5842 5841 5840 5840 5839 5839 5840 5840 5840 5840 5840 5840 5841 5841 5842 5843 5843 5843 5844 5845 5846 5846 5847 5848 5848 5849 5849 5849 5849 5850 5849 5849 5849 5849 5848 5847 5847 5846 5845 5844 5844
5841 5840 5838 5837 5836 5835 5834 5834 5834 5834 5835 5836 5836 5836 5837 5837 5838 5839 5839 5840 5841 5841 5842 5843 5843 5844 5845 5845 5845 5846 5846 5845 5845 5846 5845 5845 5844 5844 5843 5842 5841 5840 5839
5836 5835 5833 5832 5831 5830 5830 5829 5829 5829 5830 5831 5831 5832 5832 5833 5834 5835 5836 5836 5837 5838 5839 5839 5840 5840 5841 5841 5841 5842 5842 5842 5842 5842 5842 5841 5840 5840 5839 5838 5836 5836 5835
5831 5829 5828 5827 5826 5825 5825 5824 5824 5824 5825 5826 5827 5828 5828 5828 5829 5831 5832 5832 5833 5834 5834 5835 5836 5836 5836 5837 5837 5837 5837 5838 5837 5837 5837 5837 5836 5835 5834 5833 5832 5831 5830
5825 5824 5822 5822 5821 5820 5819 5819 5819 5820 5820 5821 5822 5823 5824 5824 5825 5826 5827 5828 5829 5830 5830 5831 5831 5831 5832 5832 5833 5833 5833 5833 5833 5832 5832 5832 5831 5831 5830 5829 5828 5827 5826